Location: Los Gatos B&B
(42.6926°N, 77.0646°W)
Time: 09:56:48
(UTC-04:00)

SL-16 R/B - Visible Passes

Search period start: 30 June 2016 00:00
Search period end: 10 July 2016 00:00
Orbit: 841 x 849 km, 71.0° (Epoch: 29 June)

Date Brightness Start Highest point End Pass type
(mag) Time Alt. Az. Time Alt. Az. Time Alt. Az.
30 Jun 3.6 00:54:57 10° NW 00:59:20 23° W 01:00:04 23° WSW visible
30 Jun 2.7 22:56:00 10° NNW 23:01:34 51° ENE 23:04:24 27° ESE visible
01 Jul 3.6 00:40:51 10° NW 00:45:18 24° WSW 00:46:17 23° WSW visible
01 Jul 2.7 22:41:58 10° NNW 22:47:30 49° ENE 22:50:40 24° ESE visible
02 Jul 3.6 00:26:45 10° NW 00:31:16 25° WSW 00:32:32 23° WSW visible
02 Jul 2.7 22:27:56 10° NNW 22:33:27 47° ENE 22:36:56 21° SE visible
03 Jul 3.6 00:12:39 10° NW 00:17:15 26° WSW 00:18:49 23° SW visible
03 Jul 2.8 22:13:55 10° NNW 22:19:24 46° ENE 22:23:15 19° SE visible
03 Jul 3.6 23:58:33 10° NW 00:03:13 27° WSW 00:05:08 22° SW visible
04 Jul 2.8 21:59:53 10° NNW 22:05:20 45° ENE 22:09:37 16° SE visible
04 Jul 3.6 23:44:28 10° NW 23:49:11 28° WSW 23:51:30 21° SW visible
05 Jul 2.9 21:45:51 10° NNW 21:51:16 43° ENE 21:56:00 13° SE visible
05 Jul 3.6 23:30:22 10° NW 23:35:10 29° WSW 23:37:53 19° SW visible
06 Jul 2.9 21:31:49 10° NNW 21:37:13 42° ENE 21:42:26 11° SE visible
06 Jul 3.6 23:16:17 10° NW 23:21:08 30° WSW 23:24:20 18° SSW visible
07 Jul 2.9 21:17:48 10° NNW 21:23:09 41° ENE 21:28:30 10° SE visible
07 Jul 3.6 23:02:12 10° NW 23:07:06 31° WSW 23:10:48 16° SSW visible
08 Jul 3.6 22:48:07 10° NW 22:53:05 32° WSW 22:57:19 13° SSW visible
09 Jul 3.6 22:34:02 10° NW 22:39:03 33° WSW 22:43:53 11° SSW visible
